Regional Weather Roundup
Issued by NWS

Home | Current Version | Previous Version | Graphics & Text | Print | Product List | Glossary On
Versions: 1 2 3 4 5 6 7 8 9 10 11 12 13 14 15 16 17 18 19 20 21 22 23 24 25 26 27 28 29 30 31 32 33 34 35 36 37 38 39 40 41 42 43 44 45 46 47 48 49 50
743
ASUS44 KLIX 261005
RWRLA
LOUISIANA WEATHER ROUNDUP
NATIONAL WEATHER SERVICE NEW ORLEANS LA
400 AM CST MON JAN 26 2015

NOTE: "FAIR" INDICATES FEW OR NO CLOUDS BELOW 12,000 FEET WITH NO
      SIGNIFICANT WEATHER AND/OR OBSTRUCTIONS TO VISIBILITY.
      SKY/WX - SKY CONDITION AND SIGNIFICANT WEATHER.
      TMP - AIR TEMPERATURE.    DP   - DEWPOINT TEMPERATURE.
      RH  - RELATIVE HUMIDITY.  PRES - PRESSURE.
      HX  - HEAT INDEX.         WCI  - WIND CHILL INDEX.

*  THESE STATIONS ARE NOT NWS OR FAA STATIONS AND ARE NOT UNDER
   NWS QUALITY CONTROL.

LAZ040-048-061>063-065-066-069-261100-
SOUTHEAST LOUISIANA

CITY           SKY/WX    TMP DP  RH WIND       PRES   REMARKS
N.O. AUDUBON     N/A     50  36  58 MISG        N/A
N.O. INTL ARPT CLEAR     49  35  58 NW7       30.04S
N.O. LAKEFRONT CLEAR     53  39  59 NW15      30.04S
N.O. DOWNTOWN* FAIR      54  32  43 NW7       30.04S
SLIDELL        CLEAR     47  34  60 VRB5      30.02R
BATON ROUGE    CLEAR     51  31  46 NW9G20    30.05S
BOOTHVILLE     CLEAR     49  41  74 W8        30.04F
BELLE CHASSE   CLEAR     52  32  46 VRB6      30.03S
BOGALUSA*        N/A     43  35  75 NW5       30.04R
GALLIANO*      SUNNY     45  38  75 MISG      30.05F
NEW ROADS*     FAIR      48  33  55 NW10      30.08R
GONZALES*      FAIR      50  33  53 NW7       30.05S
HAMMOND*       CLEAR     48  32  53 NW8       30.05S
HOUMA*         CLEAR     49  34  55 NW8       30.05S
PORT FOURCHON* SUNNY     54  41  62 W9        30.09S

$$

LAZ041-044-053-054-261100-
SOUTHWEST LOUISIANA

CITY           SKY/WX    TMP DP  RH WIND       PRES   REMARKS
LAKE CHARLES   CLEAR     51  31  46 NW16      30.11S
LAFAYETTE      CLEAR     49  32  52 N10       30.08F
PATTERSON      CLEAR     52  30  43 N10       30.07S
SALT POINT       N/A     48  37  65 VRB3      30.07R
NEW IBERIA     CLEAR     48  34  58 NW10      30.08S
CHENAULT AIRPK NOT AVBL

$$

LAZ027-028-261100-
CENTRAL LOUISIANA

CITY           SKY/WX    TMP DP  RH WIND       PRES   REMARKS
FORT POLK      CLEAR     46  31  57 NW8       30.12R
ALEXANDRIA INT CLEAR     44  32  62 NW7       30.10S
ALEXANDRIA     CLEAR     45  32  60 NW6       30.10S

$$

LAZ001-002-261100-
NORTHWEST LOUISIANA

CITY           SKY/WX    TMP DP  RH WIND       PRES   REMARKS
SHREVEPORT     CLEAR     43  32  65 NW9       30.13S
BARKSDALE AFB  CLEAR     41  31  68 NW8       30.14S
DTN SHREVEPORT CLEAR     43  31  62 NW6       30.14S

$$

LAZ014-016-261100-
NORTHEAST LOUISIANA

CITY           SKY/WX    TMP DP  RH WIND       PRES   REMARKS
MONROE         CLEAR     42  34  73 NW7       30.11R
TALLULAH       CLEAR     42  33  70 NW5       30.06F

$$




USA.gov is the U.S. government's official web portal to all federal, state and local government web resources and services.